GFSSE_925_thetae_234.txt.gz
Theta_e
340 340 337 336 342 345 343 342 333 329 327 330 333 334 331 329 328 329 330 332 334 333 333 332 335 340 332 333 338 341 341 341 342 342 340 336 338 337 338 338 327 329 332
341 339 334 336 342 345 344 344 334 330 327 329 333 335 335 332 332 332 334 335 336 336 336 338 341 342 339 330 333 336 338 339 341 345 346 344 341 339 338 334 326 326 330
342 342 338 337 343 345 345 344 336 332 329 329 331 336 339 339 342 343 342 342 342 342 343 343 341 337 334 334 328 332 333 336 337 341 350 352 349 343 343 342 339 335 329
340 336 335 337 343 347 346 343 338 335 336 334 331 335 339 341 342 342 340 337 336 337 337 337 335 332 330 330 327 326 330 333 334 335 337 344 349 350 342 343 345 344 343
342 338 334 336 339 345 344 342 340 338 339 339 335 334 336 339 342 343 341 339 337 336 336 336 335 334 334 333 331 328 326 325 326 329 332 336 339 350 345 336 340 344 345
338 336 334 334 336 339 341 342 342 340 341 342 339 337 335 335 338 342 341 341 340 338 337 337 334 333 334 336 336 334 331 330 329 329 328 331 335 340 350 336 331 332 336
332 329 330 330 331 333 336 339 343 343 343 342 341 340 339 338 336 335 337 338 340 340 338 336 333 335 337 335 333 332 331 331 331 333 330 335 339 340 349 334 328 330 333
334 331 330 329 328 329 331 334 337 340 342 342 341 339 338 337 335 334 333 334 337 337 336 333 336 335 332 331 331 331 330 331 332 334 333 339 342 342 347 332 339 340 340
339 336 335 334 331 330 329 328 329 332 334 334 334 333 332 331 332 332 332 332 332 333 332 334 336 333 332 332 331 332 332 336 341 343 340 346 341 347 335 341 342 342 341
349 348 343 337 334 333 332 332 331 330 331 332 332 332 332 332 332 332 332 331 332 333 335 338 336 334 333 331 330 332 336 339 343 343 344 346 336 339 343 342 340 336 334
345 345 347 349 348 346 337 335 335 336 335 336 336 336 336 335 334 334 335 334 333 338 340 340 338 335 332 331 329 332 341 342 338 341 344 345 344 344 341 337 333 330 327
341 346 346 348 349 349 346 343 344 346 345 343 346 346 346 346 345 342 344 346 345 344 343 341 340 337 334 333 335 341 343 338 335 341 340 341 339 336 333 328 321 317 315
335 338 344 345 343 345 347 348 348 343 339 338 336 337 339 342 343 341 337 343 344 344 343 343 339 339 335 337 341 342 341 331 328 329 333 325 320 316 314 313 314 314 315
336 337 336 333 341 348 343 343 339 341 340 340 339 337 336 335 340 333 332 334 341 344 343 343 341 342 341 341 342 342 336 341 336 326 324 319 319 318 319 315 312 312 313
339 338 340 340 339 341 345 345 344 343 340 332 335 334 334 332 333 330 330 334 338 341 340 336 340 344 343 344 343 343 342 339 336 324 323 321 321 321 320 320 317 319 315
337 338 341 342 337 345 342 339 337 331 329 332 334 333 334 331 331 332 328 332 332 342 338 337 338 341 342 343 343 340 339 332 331 328 326 327 319 320 321 322 322 322 321
332 335 339 341 341 341 336 332 326 328 330 330 331 330 329 330 329 329 328 331 333 339 340 337 341 342 343 341 342 339 337 338 336 333 329 321 319 319 320 321 322 322 321
328 332 335 335 341 336 329 326 329 334 327 329 337 339 337 332 331 333 333 335 338 338 339 339 339 343 343 341 342 340 336 333 331 329 328 325 320 317 321 322 322 325 324
321 324 326 327 329 333 336 332 335 336 337 333 326 324 336 331 332 336 336 336 336 337 337 338 338 341 342 340 340 340 340 337 335 334 333 331 326 322 328 323 321 325 324
317 317 318 319 320 325 325 328 324 323 327 326 319 317 320 320 324 326 330 334 334 334 334 335 336 337 337 336 335 335 336 336 334 330 329 329 330 330 327 324 323 326 329
315 315 315 314 313 314 317 321 320 321 315 315 314 315 315 315 317 317 318 320 322 324 322 324 328 332 333 332 333 332 333 332 331 330 327 330 328 327 326 326 326 326 326
316 315 313 312 312 312 312 313 314 313 313 312 312 313 313 311 312 312 312 312 314 316 317 318 318 322 327 326 330 330 328 329 330 328 328 327 326 325 324 324 323 322 323
316 313 313 313 312 311 310 310 310 310 309 309 307 307 307 307 308 308 307 308 308 309 309 310 313 316 319 320 319 328 331 329 326 327 327 325 324 323 321 319 318 316 316
314 313 313 311 310 308 308 307 307 306 306 305 303 303 303 303 303 304 304 304 304 305 306 306 308 310 312 318 316 321 320 323 326 326 325 322 320 319 318 317 316 314 313
312 312 311 309 308 307 306 305 304 303 303 303 303 303 303 303 304 304 304 305 306 306 307 308 309 309 309 312 314 316 316 320 322 324 324 320 320 319 318 314 314 314 314
311 310 309 307 306 305 304 303 303 303 303 303 303 303 304 304 305 305 306 306 307 308 309 309 309 310 310 310 310 312 317 317 318 321 320 318 316 316 314 312 311 312 311

GFSSE_925_thetae_237.txt.gz
Theta_e
347 352 358 344 344 342 341 331 328 327 334 335 333 332 333 333 333 335 337 337 337 337 335 333 338 334 333 339 341 342 343 342 341 337 337 339 339 340 341 340 331 332 336
345 347 360 353 345 343 342 333 329 327 332 336 337 336 335 335 335 335 335 335 334 333 333 338 341 341 334 334 339 342 342 342 344 345 342 339 338 337 338 328 327 330 334
346 351 352 356 346 345 343 335 331 329 329 333 337 338 338 339 340 340 340 341 342 343 344 343 342 339 337 333 334 336 337 339 340 346 350 350 345 342 341 334 328 328 331
344 350 350 353 347 346 343 337 335 334 333 331 335 338 339 341 342 341 339 338 337 337 337 336 334 332 331 331 329 329 333 335 336 337 338 342 348 348 343 342 338 339 334
339 340 352 349 346 345 342 340 338 339 339 335 333 335 339 341 341 341 339 337 335 335 334 335 335 334 333 333 332 330 328 328 328 329 331 334 342 339 347 341 344 342 343
335 338 338 334 339 340 340 340 339 339 341 340 338 337 336 337 339 341 340 339 338 337 336 336 335 333 334 336 336 334 331 330 329 329 328 328 333 336 346 345 341 343 343
342 343 344 347 342 337 337 339 340 342 343 344 344 341 340 339 337 336 337 338 339 340 338 337 335 334 337 336 334 332 331 331 332 330 329 327 333 339 340 349 337 337 337
334 332 329 329 329 331 333 336 339 340 340 339 337 336 336 337 337 337 337 337 338 339 339 337 335 337 335 332 332 331 330 331 332 334 334 330 335 341 342 348 334 332 334
332 332 332 332 331 330 329 329 329 330 330 331 333 334 333 332 332 333 335 335 336 336 336 336 336 337 334 334 333 332 332 333 339 341 338 335 344 338 342 348 335 338 341
335 335 334 334 334 333 331 331 331 332 332 333 335 335 336 336 337 338 340 340 338 334 334 336 338 337 336 336 336 333 331 338 340 341 341 341 339 345 346 336 341 343 341
347 342 339 337 336 335 335 337 339 341 340 341 344 345 346 346 343 342 343 344 344 344 342 340 341 340 339 335 334 333 334 340 342 338 340 344 338 337 340 343 342 338 334
344 345 347 346 346 342 339 340 344 342 338 340 340 336 334 335 343 341 343 341 344 343 342 342 342 341 339 334 332 335 341 341 336 337 340 345 344 344 343 340 334 330 327
338 338 342 344 347 348 345 347 346 339 338 338 338 336 334 334 337 339 335 337 332 334 340 340 341 341 341 342 337 341 340 339 330 333 339 340 340 337 331 325 321 318 316
338 341 339 341 346 344 343 341 340 341 340 338 332 334 335 335 334 334 332 333 333 334 337 337 335 335 338 338 339 340 341 338 336 333 325 321 319 317 316 316 313 313 314
334 339 339 340 343 344 343 342 339 334 331 331 333 334 334 332 330 329 334 331 332 333 334 331 332 334 337 336 338 339 342 342 341 338 332 325 322 321 322 322 320 317 317
331 334 337 337 337 337 334 328 327 329 330 330 330 330 331 331 330 329 329 330 330 335 333 330 327 325 328 335 334 339 339 339 336 335 329 323 323 328 320 321 321 320 322
327 330 336 335 334 330 328 328 329 328 330 335 336 335 335 331 334 334 332 331 338 338 336 335 328 325 325 326 327 326 340 339 336 337 336 335 333 324 319 318 320 321 322
322 324 325 328 331 331 332 334 337 334 333 326 326 332 335 330 332 334 335 335 334 335 336 336 336 336 336 336 336 336 337 338 337 335 333 331 328 327 324 319 319 321 323
316 316 317 321 328 331 328 328 328 324 321 318 319 320 319 322 324 326 327 326 329 330 330 331 334 335 336 335 336 337 338 338 339 338 336 334 333 330 328 325 326 327 321
313 313 312 313 319 323 324 321 317 316 315 315 314 314 314 315 315 316 316 317 319 322 322 324 325 329 333 331 333 333 334 333 332 333 332 330 330 330 329 328 326 325 326
312 312 312 311 311 311 315 319 314 314 311 310 310 310 310 310 310 311 310 310 311 311 312 315 317 321 327 326 331 330 330 330 331 330 329 328 327 326 326 325 325 325 326
313 312 311 310 309 308 308 309 311 309 308 306 305 305 305 304 305 305 305 306 306 307 308 308 310 312 317 319 320 322 328 328 327 327 327 326 325 325 324 323 323 322 321
312 310 309 309 308 307 306 306 306 305 305 304 303 303 303 303 304 304 305 305 306 306 306 306 307 309 311 314 316 320 327 328 322 324 324 324 323 322 321 319 318 317 316
310 309 308 307 306 305 305 304 303 303 303 303 303 303 304 304 305 305 305 306 307 308 308 308 308 309 309 310 312 322 316 318 323 324 323 322 319 318 317 317 316 315 315
309 308 307 306 305 304 304 303 303 303 303 303 303 304 304 304 305 306 306 307 308 308 308 309 309 310 310 309 311 311 312 316 316 320 321 319 319 319 319 314 312 312 311
308 306 306 305 304 304 304 304 304 304 303 303 303 304 304 305 305 306 307 307 307 308 308 310 311 311 310 310 310 309 310 314 313 314 315 315 316 316 314 313 312 313 310

GFSSE_925_thetae_240.txt.gz
Theta_e
344 345 353 354 349 339 330 327 327 330 330 330 335 337 336 334 335 337 338 338 338 337 333 336 336 331 337 339 341 342 344 342 337 338 339 339 339 339 332 335 334 334 342
347 348 353 352 346 340 331 328 326 329 332 331 330 330 331 333 335 336 337 337 337 336 337 340 341 339 332 338 341 342 342 344 346 344 339 339 338 338 332 331 328 332 340
344 350 350 352 349 342 333 330 328 328 332 335 335 336 337 337 338 338 339 340 341 343 343 342 339 337 336 332 335 338 338 340 343 347 348 345 342 340 338 331 329 331 333
345 348 351 351 348 343 336 334 333 332 330 335 339 341 343 343 342 340 339 338 337 337 336 335 334 332 332 331 330 331 334 335 336 338 341 344 349 346 342 339 333 332 331
345 346 352 351 348 343 339 337 338 338 335 333 334 336 339 340 341 341 339 338 337 337 337 337 336 334 334 334 334 333 332 329 328 329 333 335 340 345 347 342 341 339 336
344 343 350 347 343 341 340 339 339 341 340 338 337 337 337 337 338 339 339 339 339 339 338 338 337 335 334 335 336 335 333 332 331 329 328 329 330 335 337 347 341 343 341
336 335 337 333 334 335 335 336 337 338 338 338 338 337 336 336 336 335 335 336 337 338 341 339 338 336 338 337 334 333 333 332 332 330 330 328 328 333 337 343 347 339 340
330 332 335 333 333 333 333 335 337 335 332 331 330 330 330 330 331 332 332 333 334 336 337 336 336 334 337 334 333 333 333 334 333 333 335 333 328 331 336 341 347 339 335
341 344 345 344 346 342 338 335 337 336 334 332 331 330 329 329 328 331 332 329 330 332 334 336 336 337 338 335 333 333 332 331 332 337 340 338 330 337 340 340 346 339 335
341 340 341 341 337 334 336 336 334 334 333 333 334 335 338 338 332 334 337 338 342 341 339 339 339 339 340 339 335 331 332 332 332 341 340 340 340 342 339 340 346 336 339
344 344 339 336 336 335 336 336 337 338 341 342 344 345 342 343 344 344 343 343 343 344 343 342 342 342 342 341 337 333 333 333 337 342 341 338 342 342 347 346 338 341 341
339 341 346 345 342 341 338 339 344 339 338 341 339 336 335 337 339 338 336 339 338 339 340 341 341 341 341 340 339 340 335 340 342 335 336 337 343 339 339 340 343 341 335
340 338 344 344 347 347 344 346 340 338 338 338 335 334 336 335 334 333 332 333 334 333 334 338 336 335 334 335 335 336 338 339 339 332 336 340 344 344 343 340 336 332 326
336 338 340 345 344 344 342 340 339 337 333 332 333 333 333 331 330 329 333 333 333 333 332 332 331 333 332 334 332 333 334 336 337 338 331 327 330 331 333 330 323 320 320
334 336 338 341 342 340 338 334 330 330 331 330 330 330 330 329 329 328 328 330 329 333 335 333 329 330 329 326 327 326 329 331 333 335 337 336 331 325 322 323 328 326 323
330 333 335 336 335 332 327 328 329 331 333 334 334 334 331 331 334 335 335 332 334 337 337 334 334 327 329 327 325 322 322 322 327 334 334 330 326 323 323 328 321 322 325
325 328 333 331 329 331 332 329 329 326 327 330 330 331 331 329 331 332 332 333 334 334 335 336 335 334 327 326 327 326 324 327 328 330 333 334 333 330 331 329 320 319 321
319 323 327 330 331 332 333 330 326 321 319 319 322 324 321 320 320 322 323 322 327 329 328 329 332 334 335 335 334 334 335 336 336 337 338 338 336 334 330 327 326 321 319
313 315 321 324 323 321 319 319 320 319 317 314 315 314 313 313 313 313 313 314 314 317 319 320 324 326 331 332 332 333 334 335 335 334 333 333 333 332 330 330 329 328 327
311 310 310 313 317 319 320 318 316 314 311 310 308 308 308 308 308 308 308 309 309 310 311 312 314 319 325 327 328 330 332 332 333 332 332 331 330 329 328 327 327 326 327
310 309 309 309 308 309 309 310 310 309 308 306 305 304 304 304 305 305 305 305 306 306 306 307 308 310 315 318 323 323 325 326 328 328 328 327 326 326 325 325 325 325 326
309 308 308 307 307 307 306 305 306 305 304 304 303 303 304 304 304 305 305 306 307 307 307 307 307 308 310 312 318 319 327 327 326 326 326 325 325 324 324 323 321 320 320
308 307 307 306 305 305 305 305 304 304 303 303 303 304 304 304 305 305 306 307 307 308 308 308 308 308 308 308 310 314 323 326 321 322 324 322 322 321 320 317 315 314 314
307 307 306 306 305 305 304 304 303 303 303 303 303 303 304 305 305 306 306 306 307 308 308 309 309 309 308 308 309 313 311 312 319 322 320 320 320 318 317 316 314 313 312
307 306 305 305 305 304 304 304 304 303 303 303 303 304 305 305 306 306 306 307 307 308 308 310 311 311 310 309 309 309 309 310 314 316 315 318 317 318 318 315 313 313 311
305 305 304 304 304 304 304 304 304 304 304 304 304 304 304 305 305 306 306 307 308 307 307 310 311 312 312 312 312 311 309 310 313 313 313 315 316 315 312 312 311 310 309

GFSSE_925_thetae_246.txt.gz
Theta_e
349 351 351 350 336 330 333 337 341 345 345 342 340 335 335 336 339 339 337 337 337 335 338 335 333 339 341 342 343 344 341 339 340 340 340 340 338 332 334 338 331 341 335
348 349 350 349 335 333 338 337 337 341 344 343 341 337 335 335 337 337 337 337 335 336 340 341 339 332 338 341 342 342 344 346 346 343 340 342 341 338 331 330 333 344 334
349 349 350 350 337 331 330 333 331 330 332 334 334 335 335 335 336 336 338 341 346 344 343 340 337 336 336 333 337 339 339 341 344 347 347 350 346 342 338 332 328 332 333
349 349 350 349 339 334 332 333 336 335 334 332 332 332 334 336 339 341 340 338 337 336 335 333 332 332 331 331 331 330 332 334 336 339 346 350 351 348 341 341 335 332 333
349 348 350 350 343 341 340 337 335 336 338 339 339 339 340 339 338 337 337 336 335 334 334 335 336 335 333 333 334 335 333 330 329 332 339 344 346 348 347 346 343 340 336
345 347 349 348 345 344 343 345 339 336 335 334 335 337 337 336 336 336 337 337 336 337 336 336 335 335 334 333 335 336 336 335 333 335 336 339 339 341 339 344 346 344 342
345 346 347 346 345 344 345 345 345 342 339 338 337 337 337 337 336 335 335 335 335 335 336 338 337 334 333 334 336 333 332 332 337 337 337 337 337 339 337 335 336 343 344
344 344 346 344 344 344 345 344 344 343 340 339 338 337 336 335 335 335 336 337 339 342 342 340 337 335 334 336 336 334 333 333 337 336 337 337 337 336 336 330 332 336 342
341 341 343 345 344 340 343 342 339 337 337 338 339 339 340 338 338 336 336 337 337 336 336 334 335 336 337 338 338 338 336 334 337 335 336 337 339 340 340 335 331 333 338
341 340 340 343 342 342 343 335 337 338 338 340 341 344 342 343 343 346 345 346 342 342 343 344 343 342 341 340 340 339 338 334 337 337 336 337 343 343 342 341 338 336 337
344 343 345 346 344 344 344 342 344 342 342 343 341 340 342 343 343 340 337 335 335 336 335 338 341 342 342 341 341 339 339 338 340 340 338 341 341 339 338 340 345 340 340
344 345 347 350 350 346 346 347 345 343 342 342 341 341 341 341 338 335 338 335 336 334 336 336 336 337 341 344 345 342 342 343 342 343 342 337 330 339 345 345 344 343 342
342 344 346 345 347 347 346 344 342 342 341 340 339 338 338 338 338 336 339 338 338 337 339 340 338 337 339 339 340 339 338 336 334 335 334 334 335 331 334 340 341 337 339
340 340 342 343 343 343 342 341 340 339 336 334 333 333 336 337 337 337 338 338 338 338 339 339 339 339 336 336 335 334 334 334 334 332 331 333 335 333 330 332 330 330 329
337 337 339 340 340 339 339 337 334 334 333 333 331 329 329 332 332 333 336 336 335 336 337 337 338 340 340 335 334 333 332 331 331 331 330 330 330 329 329 331 332 324 325
335 335 336 335 332 334 333 332 330 329 329 328 327 325 325 325 326 328 329 329 331 332 332 334 336 337 339 339 338 335 333 331 330 331 331 329 328 328 328 327 326 328 331
333 332 331 332 329 329 331 329 327 326 324 323 321 320 320 319 319 321 323 323 322 323 324 325 327 330 334 336 337 337 338 336 334 330 331 331 329 326 326 325 324 323 324
330 328 327 326 326 324 323 322 320 318 316 316 316 317 315 315 315 316 317 317 316 316 317 318 318 320 322 326 329 333 335 336 336 338 337 337 335 334 332 329 326 327 327
322 324 323 322 321 322 324 323 319 317 316 314 314 313 313 313 313 314 314 315 315 315 315 315 316 316 316 317 318 322 322 326 332 336 335 336 336 335 334 334 331 330 330
317 317 316 315 315 315 315 315 317 315 314 312 312 312 312 312 313 313 313 314 314 314 315 316 316 316 316 316 317 317 317 319 324 326 331 333 333 332 331 331 332 332 333
316 316 315 315 314 314 313 313 312 312 313 312 311 311 311 312 312 313 313 313 314 314 315 315 315 316 316 316 316 317 316 317 318 327 329 330 329 329 328 328 328 328 328
316 315 314 314 313 313 312 312 312 312 312 311 310 311 311 311 311 312 312 313 314 314 315 315 315 315 315 316 316 316 320 319 323 325 326 325 325 324 325 324 324 323 322
315 314 313 313 313 312 312 312 312 312 311 311 310 310 310 310 311 311 312 313 314 314 315 315 315 316 316 317 316 316 319 321 317 317 318 320 318 322 323 323 322 321 320
314 313 313 312 312 311 311 311 311 311 311 310 310 310 310 310 311 311 311 312 313 313 314 315 315 315 314 315 315 316 315 315 316 319 317 317 317 317 321 321 320 318 316
314 313 312 312 311 310 310 310 310 310 310 309 309 310 310 310 310 310 310 312 313 313 315 315 315 316 315 315 314 315 315 316 316 318 320 317 316 319 319 319 319 316 315
314 313 312 312 311 310 310 310 310 309 308 309 309 308 308 308 309 309 310 312 313 313 313 314 313 313 313 314 314 315 314 313 313 314 315 316 318 318 316 315 316 314 312